ELECTRON R/B (44373 NORAD) Tracking and Keplerian Element Data

This shows tracking and keplerian element data for the satellite.

Feedback or suggestion? Click here.




ElementValue
Catalog44373
NameELECTRON R/B
Epoch Orbit17
Epoch Day181.29412688
Epoch Year2019
RAAN282.8803
Inclination45.0016
Eccentricity0.0112365
Argument of Perigee251.833
Mean Anonmoly107.0337
Mean Motion15.72117506
Decay Rate0.02909985
L11 44373U 19037J 19181.29412688 .02909985 43770-2 15215-1 0 9991
L22 44373 45.0016 282.8803 0112365 251.8330 107.0337 15.72117506 174

Live tracking and technical data element details for ELECTRON R/B (NORAD 44373). ELECTRON R/B can be tracked NOW for your location showing map with azimuth and elevation plus other details from your city location.

Track the satellite on the map from your city or location and see movement details for azimuth, elevation, latitude, longitude, range, height, and movement on the map or in text.







IsCatalogInMostPopularTable: catalog: 44373, numindb: 19
Update: records affected: 1



GetName: 44373 ELECTRON R/B

Hit Count: updated at: Tue, 22 Oct 2019 23:38:22 GMT